This demonstration page uses our WeatherBlox Daily Observations layout. Learn more.

Left ArrowRight Arrow

Hourly Observations for September 8, 2017

Temp ( °F °C ) Dew Point ( °F °C ) Humidity (%) Winds ( mph kmh ) Pressure ( in mb ) Visibility ( mi km ) Precip ( " mm )
12:51 am 00:51 Clear 79 26.1 42 5.6 27 27 NE 6 9 29.8 1009 10 16.0934 0 0
1:51 am 01:51 Clear 73 22.8 42 5.6 33 33 SE 3 6 29.81 1009 10 16.0934 0 0
2:51 am 02:51 Clear 70 21.1 42 5.6 37 37 NNE 5 7 29.81 1009 10 16.0934 0 0
3:51 am 03:51 Clear 67 19.4 42 5.6 41 41 SSE 7 11 29.83 1010 10 16.0934 0 0
4:51 am 04:51 Clear 65 18.3 43 6.1 45 45 SE 5 7 29.83 1010 10 16.0934 0 0
5:51 am 05:51 Clear 66 18.9 44 6.7 45 45 SSE 5 7 29.84 1011 10 16.0934 0 0
6:51 am 06:51 Sunny 70 21.1 45 7.2 41 41 SE 6 9 29.86 1011 10 16.0934 0 0
7:51 am 07:51 Sunny 78 25.6 45 7.2 31 31 SE 10 17 29.86 1011 10 16.0934 0 0
8:51 am 08:51 Sunny 82 27.8 47 8.3 29 29 SSE 10 17 29.87 1012 10 16.0934 0 0
9:51 am 09:51 Sunny 86 30 45 7.2 24 24 S 7 11 29.87 1012 10 16.0934 0 0
10:51 am 10:51 Sunny 89 31.7 45 7.2 22 22 S 6 9 29.86 1011 10 16.0934 0 0
11:51 am 11:51 Sunny 93 33.9 45 7.2 19 19 S 9 15 29.83 1010 10 16.0934 0 0
12:51 pm 12:51 Sunny 95 35 44 6.7 17 17 Calm 29.78 1009 10 16.0934 0 0
1:51 pm 13:51 Mostly Sunny 96 35.6 43 6.1 16 16 SW 8 13 29.76 1008 10 16.0934 0 0
2:39 pm 14:39 Mostly Cloudy with Light Rain 79 26.1 64 17.8 60 60 S 25 41 29.77 1008 2.5 4.02335 0.03 0.762
2:51 pm 14:51 Mostly Cloudy with Light Rain 79 26.1 63 17.2 58 58 SSW 17 28 29.8 1009 8 12.87472 0.08 2.032
3:51 pm 15:51 Partly Cloudy 85 29.4 53 11.7 33 33 SSW 10 17 29.79 1009 10 16.0934 0 0.0254
4:51 pm 16:51 Partly Cloudy 86 30 54 12.2 33 33 ESE 13 20 29.8 1009 10 16.0934 0 0
5:51 pm 17:51 Mostly Sunny 84 28.9 53 11.7 34 34 E 6 9 29.8 1009 10 16.0934 0 0
6:51 pm 18:51 Partly Cloudy 82 27.8 55 12.8 40 40 ESE 6 9 29.8 1009 10 16.0934 0 0
7:51 pm 19:51 Clear 80 26.7 54 12.2 41 41 E 7 11 29.81 1010 10 16.0934 0 0
8:51 pm 20:51 Mostly Clear 79 26.1 53 11.7 41 41 E 7 11 29.83 1010 10 16.0934 0 0
9:51 pm 21:51 Cloudy 78 25.6 56 13.3 47 47 WSW 14 22 29.88 1012 10 16.0934 0 0
10:51 pm 22:51 Cloudy 78 25.6 56 13.3 47 47 N 8 13 29.91 1013 10 16.0934 0 0
11:51 pm 23:51 Mostly Clear 74 23.3 58 14.4 57 57 W 8 13 29.91 1013 10 16.0934 0 0.0254

Powered by AerisWeather